Volver al catálogo

GEESAT 2-10

ActivoCienciaLEO
NORAD 58914·PAYLOAD·🇨🇳 China

Lanzado Feb 2, 2024 desde Xichang Satellite Launch Center

Loading…

Próximos Pases (próximas 24 horas)

TLE

ActualizadoSource: Space-Track

Época: Sep 14, 2026, 14:18 UTC

1 58914U 24023K   26257.59650938  .00000936  00000-0  14024-3 0  9997
2 58914  49.9949 299.7977 0009646 336.4343  23.6152 14.83403729142180

Sigue GEESAT 2-10 en tiempo real con AllMySat

Download on the App Store